Location: Ambrosina
(19.9365°S, 43.9833°W)
Time: 07:55:33
(UTC+00:00)

ATLAS 3B R/B - Pass Details

Date: 11 May 2021
Orbit: 1006 x 1189 km, 63.8° (Epoch: 17 June)

Event Time Altitude Azimuth Distance (km) Brightness Sun altitude
Rises 21:10:59 0° 319° (NW) 4,055 6.8 -10.3°
Reaches altitude 10° 21:13:50 10° 313° (NW) 3,106 6.2 -10.9°
Maximum altitude 21:20:55 45° 242° (WSW) 1,576 4.0 -12.5°
Drops below altitude 10° 21:28:01 10° 171° (S) 3,104 4.9 -14.2°
Sets 21:30:53 0° 164° (SSE) 4,053 5.4 -14.8°
